Weather History for Marshfield, MA

Change the Weather History Date:

Friday, August 16, 2013

  Actual Average (KPYM) Record (KPYM)
Temperature  
Mean Temperature 66 °F -  
Max Temperature 78 °F 81 °F 94 °F (1959)
Min Temperature 55 °F 59 °F 43 °F (1983)
Cooling Degree Days 2    
Growing Degree Days 16 (Base 50)    
Moisture  
Dew Point 55 °F    
Average Humidity 66    
Maximum Humidity 100    
Minimum Humidity 39    
Precipitation  
Precipitation 0.00 in - - ()
Sea Level Pressure  
Sea Level Pressure 30.16 in    
Wind  
Wind Speed 4 mph (WSW)    
Max Wind Speed 10 mph    
Max Gust Speed 18 mph    
Visibility 10 miles    
Events      
Averages and records for this station are not official NWS values.
T = Trace of Precipitation, MM = Missing Value Source: NWS Daily Summary

Daily Weather History Graph

Daily Weather History Graph

Search for Another Location

Airport:

Trip Planner

Search our weather history database for the weather conditions in past years. The results will help you decide how hot, cold, wet, or windy it might be!

Date:

Astronomy

Aug. 16, 2013 Rise Set
Actual Time 5:51 AM EDT 7:41 PM EDT
Civil Twilight 5:21 AM EDT 8:11 PM EDT
Nautical Twilight 4:44 AM EDT 8:47 PM EDT
Astronomical Twilight 4:05 AM EDT 9:27 PM EDT
Moon 3:59 PM EDT (8/16) 12:49 AM EDT (8/16)
Length of Visible Light 14h 49m
Length of Day
13h 49m
Waxing Gibbous, 74% of the Moon is Illuminated
Aug 16
Waxing Gibbous
Aug 20
Full
Aug 28
Last Quarter
Sep 5
New
Sep 12
First Quarter

Hourly Weather History & Observations

Time (EDT) Temp. Dew Point Humidity Pressure Visibility Wind Dir Wind Speed Gust Speed Precip Events Conditions
12:15 AM 60.8 °F 55.4 °F 82% 30.14 in 10.0 mi WSW 3.5 mph - N/A   Clear
12:35 AM 60.8 °F 55.4 °F 82% 30.14 in 10.0 mi WSW 3.5 mph - N/A   Clear
12:55 AM 60.8 °F 55.4 °F 82% 30.14 in 10.0 mi Calm Calm - N/A   Clear
1:55 AM 59.0 °F 55.4 °F 88% 30.13 in 10.0 mi Calm Calm - N/A   Clear
2:15 AM 57.2 °F 55.4 °F 94% 30.13 in 10.0 mi Calm Calm - N/A   Clear
2:35 AM 57.2 °F 55.4 °F 94% 30.13 in 10.0 mi WSW 3.5 mph - N/A   Clear
2:55 AM 57.2 °F 55.4 °F 94% 30.13 in 10.0 mi WSW 3.5 mph - N/A   Clear
3:15 AM 57.2 °F 55.4 °F 94% 30.13 in 10.0 mi Calm Calm - N/A   Clear
3:35 AM 57.2 °F 55.4 °F 94% 30.13 in 10.0 mi WSW 3.5 mph - N/A   Clear
3:55 AM 55.4 °F 55.4 °F 100% 30.13 in 10.0 mi WSW 3.5 mph - N/A   Clear
4:15 AM 57.2 °F 55.4 °F 94% 30.13 in 10.0 mi West 3.5 mph - N/A   Clear
4:35 AM 55.4 °F 55.4 °F 100% 30.13 in 10.0 mi WSW 3.5 mph - N/A   Clear
4:55 AM 55.4 °F 55.4 °F 100% 30.13 in 10.0 mi West 3.5 mph - N/A   Clear
5:15 AM 55.4 °F 55.4 °F 100% 30.13 in 10.0 mi Calm Calm - N/A   Clear
5:35 AM 55.4 °F 55.4 °F 100% 30.14 in 10.0 mi WSW 3.5 mph - N/A   Clear
5:55 AM 55.4 °F 53.6 °F 94% 30.14 in 10.0 mi WSW 3.5 mph - N/A   Clear
6:15 AM 55.4 °F 53.6 °F 94% 30.15 in 10.0 mi WSW 3.5 mph - N/A   Clear
6:35 AM 57.2 °F 55.4 °F 94% 30.15 in 10.0 mi Calm Calm - N/A   Clear
6:55 AM 57.2 °F 55.4 °F 94% 30.16 in 10.0 mi WSW 3.5 mph - N/A   Clear
7:15 AM 60.8 °F 55.4 °F 82% 30.16 in 10.0 mi Calm Calm - N/A   Clear
7:35 AM 62.6 °F 55.4 °F 77% 30.16 in 10.0 mi WSW 3.5 mph - N/A   Clear
7:55 AM 62.6 °F 57.2 °F 82% 30.16 in 10.0 mi WSW 3.5 mph - N/A   Clear
8:15 AM 64.4 °F 55.4 °F 73% 30.16 in 10.0 mi West 4.6 mph - N/A   Clear
8:35 AM 66.2 °F 55.4 °F 68% 30.16 in 10.0 mi WSW 5.8 mph - N/A   Clear
8:55 AM 69.8 °F 55.4 °F 60% 30.15 in 10.0 mi WSW 5.8 mph - N/A   Clear
9:15 AM 71.6 °F 55.4 °F 57% 30.15 in 10.0 mi West 5.8 mph - N/A   Clear
9:35 AM 71.6 °F 55.4 °F 57% 30.16 in 10.0 mi WSW 6.9 mph - N/A   Clear
9:55 AM 73.4 °F 55.4 °F 53% 30.16 in 9.0 mi WSW 6.9 mph - N/A   Clear
10:15 AM 73.4 °F 53.6 °F 50% 30.16 in 10.0 mi WSW 5.8 mph - N/A   Clear
10:35 AM 75.2 °F 55.4 °F 50% 30.16 in 10.0 mi SW 4.6 mph - N/A   Clear
10:55 AM 75.2 °F 55.4 °F 50% 30.16 in 10.0 mi West 6.9 mph - N/A   Clear
11:15 AM 75.2 °F 53.6 °F 47% 30.16 in 10.0 mi SW 10.4 mph - N/A   Partly Cloudy
11:35 AM 75.2 °F 51.8 °F 44% 30.16 in 10.0 mi West 8.1 mph - N/A   Partly Cloudy
11:55 AM 75.2 °F 51.8 °F 44% 30.16 in 10.0 mi West 5.8 mph 18.4 mph N/A   Clear
12:15 PM 78.8 °F 53.6 °F 42% 30.16 in 10.0 mi WSW 8.1 mph - N/A   Scattered Clouds
12:35 PM 78.8 °F 51.8 °F 39% 30.15 in 10.0 mi WNW 9.2 mph - N/A   Scattered Clouds
12:55 PM 77.0 °F 51.8 °F 41% 30.16 in 10.0 mi West 3.5 mph - N/A   Scattered Clouds
1:15 PM 78.8 °F 51.8 °F 39% 30.16 in 10.0 mi WSW 6.9 mph - N/A   Partly Cloudy
1:35 PM 78.8 °F 51.8 °F 39% 30.16 in 9.0 mi West 5.8 mph - N/A   Partly Cloudy
1:55 PM 78.8 °F 53.6 °F 42% 30.16 in 10.0 mi WSW 6.9 mph - N/A   Scattered Clouds
2:15 PM 78.8 °F 53.6 °F 42% 30.16 in 10.0 mi WSW 3.5 mph - N/A   Mostly Cloudy
2:35 PM 78.8 °F 51.8 °F 39% 30.15 in 10.0 mi WSW 4.6 mph - N/A   Mostly Cloudy
2:55 PM 78.8 °F 53.6 °F 42% 30.15 in 9.0 mi WSW 3.5 mph - N/A   Partly Cloudy
3:15 PM 78.8 °F 51.8 °F 39% 30.15 in 10.0 mi WSW 3.5 mph - N/A   Clear
3:35 PM 78.8 °F 51.8 °F 39% 30.15 in 10.0 mi Calm Calm - N/A   Clear
3:55 PM 77.0 °F 53.6 °F 44% 30.15 in 10.0 mi NE 6.9 mph - N/A   Partly Cloudy
4:15 PM 75.2 °F 55.4 °F 50% 30.14 in 10.0 mi ENE 6.9 mph - N/A   Scattered Clouds
4:35 PM 75.2 °F 55.4 °F 50% 30.14 in 10.0 mi East 5.8 mph - N/A   Scattered Clouds
4:55 PM 77.0 °F 53.6 °F 44% 30.14 in 10.0 mi ENE 4.6 mph - N/A   Partly Cloudy
5:15 PM 78.8 °F 53.6 °F 42% 30.14 in 10.0 mi NE 4.6 mph - N/A   Partly Cloudy
5:35 PM 78.8 °F 55.4 °F 44% 30.15 in 10.0 mi East 4.6 mph - N/A   Partly Cloudy
5:55 PM 77.0 °F 55.4 °F 47% 30.15 in 10.0 mi Calm Calm - N/A   Partly Cloudy
6:15 PM 77.0 °F 55.4 °F 47% 30.15 in 10.0 mi SW 3.5 mph - N/A   Partly Cloudy
6:35 PM 75.2 °F 57.2 °F 53% 30.15 in 10.0 mi South 6.9 mph - N/A   Partly Cloudy
6:55 PM 73.4 °F 57.2 °F 57% 30.16 in 10.0 mi SSW 4.6 mph - N/A   Clear
7:15 PM 73.4 °F 57.2 °F 57% 30.17 in 10.0 mi SSW 4.6 mph - N/A   Clear
7:35 PM 71.6 °F 55.4 °F 57% 30.17 in 10.0 mi SSW 4.6 mph - N/A   Clear
7:55 PM 69.8 °F 55.4 °F 60% 30.18 in 10.0 mi South 3.5 mph - N/A   Clear
8:15 PM 69.8 °F 55.4 °F 60% 30.18 in 10.0 mi SSW 5.8 mph - N/A   Clear
8:35 PM 68.0 °F 55.4 °F 64% 30.19 in 10.0 mi Calm Calm - N/A   Clear
8:55 PM 66.2 °F 55.4 °F 68% 30.20 in 10.0 mi SSW 3.5 mph - N/A   Clear
9:15 PM 66.2 °F 55.4 °F 68% 30.21 in 10.0 mi SW 3.5 mph - N/A   Clear
9:35 PM 66.2 °F 55.4 °F 68% 30.21 in 10.0 mi SSW 3.5 mph - N/A   Clear
9:55 PM 66.2 °F 55.4 °F 68% 30.21 in 10.0 mi SW 3.5 mph - N/A   Clear
10:15 PM 66.2 °F 55.4 °F 68% 30.21 in 10.0 mi SW 4.6 mph - N/A   Clear
10:35 PM 66.2 °F 55.4 °F 68% 30.21 in 10.0 mi WSW 4.6 mph - N/A   Clear
10:55 PM 64.4 °F 57.2 °F 77% 30.21 in 10.0 mi Calm Calm - N/A   Clear
11:15 PM 64.4 °F 57.2 °F 77% 30.21 in 10.0 mi WSW 3.5 mph - N/A   Clear
11:35 PM 64.4 °F 57.2 °F 77% 30.21 in 10.0 mi WSW 3.5 mph - N/A   Clear
11:55 PM 64.4 °F 57.2 °F 77% 30.21 in 10.0 mi WSW 3.5 mph - N/A   Clear